Regional Weather Roundup
Issued by NWS

Home | Current Version | Previous Version | Graphics & Text | Print | Product List | Glossary On
Versions: 1 2 3 4 5 6 7 8 9 10 11 12 13 14 15 16 17 18 19 20 21 22 23 24 25 26 27 28 29 30 31 32 33 34 35 36 37 38 39 40 41 42 43 44 45 46 47 48 49 50
000
ASUS43 KLSX 292207
RWRMO

WEATHER SUMMARY FOR MISSOURI
NATIONAL WEATHER SERVICE SPRINGFIELD MO
500 PM CDT MON MAY 29 2017

NOTE: "FAIR" INDICATES FEW OR NO CLOUDS BELOW 12,000 FEET WITH NO
       SIGNIFICANT WEATHER AND/OR OBSTRUCTIONS TO VISIBILITY.
       CURRENT SKY AND/OR WEATHER CONDITIONS ARE NOT AVAILABLE FOR
       CHILLICOTHE AND FARMINGTON.

MOZ001>031-035>038-043-044-053-054-292300-
...NORTHERN AND WESTERN MISSOURI...

CITY           SKY/WX    TMP DP  RH WIND       PRES   REMARKS
KANSAS CTY INT MOSUNNY   80  49  33 W5        29.99F
KANSAS C DTWN  MOSUNNY   81  46  29 VRB5      29.97F
LEE`S SUMMIT   SUNNY     79  46  31 NW17      29.99S
ST JOSEPH      MOSUNNY   81  42  25 NW16      29.99R
CHILLICOTHE      N/A     79  43  27 NW13G20   29.97S
KIRKSVILLE     MOSUNNY   77  42  28 W17G23    29.95F

$$
MOZ066>068-077>081-088>096-101>105-292300-
...SOUTHWEST MISSOURI...

CITY           SKY/WX    TMP DP  RH WIND       PRES   REMARKS
SPRINGFIELD    SUNNY     82  53  36 W13       29.99F
JOPLIN         MOSUNNY   86  56  35 W7        29.99F
BRANSON        PTSUNNY   82  57  42 W5        30.02F

$$
MOZ032>034-039>042-045>050-055>058-069>072-292300-
...CENTRAL MISSOURI...

CITY           SKY/WX    TMP DP  RH WIND       PRES   REMARKS
COLUMBIA       SUNNY     80  49  33 NW16      29.95S
JEFFERSON CITY SUNNY     83  48  29 NW10      29.94R
ROLLA          MOSUNNY   80  55  42 W13G22    29.96R
SEDALIA        SUNNY     82  51  34 W13       29.98S
WHITEMAN AFB   SUNNY     81  49  33 NW10      29.97R
WARRENSBURG    SUNNY     79  50  36 W9        29.98S
OSAGE BEACH    MOSUNNY   81  54  39 W9        29.98S

$$
MOZ051-052-059>065-292300-
...EAST CENTRAL MISSOURI...

CITY           SKY/WX    TMP DP  RH WIND       PRES   REMARKS
ST LOUIS INTL  TSTM      66  56  70 NE9G16    29.93R
SPIRIT OF STL  TSTM      69  61  75 NW13      29.92R
ST CHARLES     CLOUDY    73  61  65 SW7       29.91R THUNDER

$$
MOZ072>076-082>087-097>100-106>115-292300-
...SOUTH CENTRAL AND SOUTHEAST MISSOURI...

CITY           SKY/WX    TMP DP  RH WIND       PRES   REMARKS
CAPE GIRARDEAU MOSUNNY   85  56  37 SW12      29.92F
FARMINGTON     SUNNY     83  55  38 W9        29.94F
POPLAR BLUFF   MOSUNNY   84  57  39 SW12      29.94S
WEST PLAINS    SUNNY     83  56  39 W12G17    30.00S

$$



USA.gov is the U.S. government's official web portal to all federal, state and local government web resources and services.